STARLINK-1756 (46379 NORAD) Tracking and Keplerian Element Data

This shows tracking and keplerian element data for the satellite.

Feedback or suggestion? Click here.




ElementValue
Catalog46379
NameSTARLINK-1756
Epoch Orbit179
Epoch Day338.66668981
Epoch Year2020
RAAN342.932
Inclination52.9975
Eccentricity0.000349
Argument of Perigee10.943
Mean Anonmoly76.9304
Mean Motion15.62795638
Decay Rate-0.00013456
L11 46379U 20062BG 20338.66668981 -.00013456 00000-0 -14105-3 0 9990
L22 46379 52.9975 342.9320 0003490 10.9430 76.9304 15.62795638 1792

Live tracking and technical data element details for STARLINK-1756 (NORAD 46379). STARLINK-1756 can be tracked NOW for your location showing map with azimuth and elevation plus other details from your city location.

Track the satellite on the map from your city or location and see movement details for azimuth, elevation, latitude, longitude, range, height, and movement on the map or in text.







IsCatalogInMostPopularTable: catalog: 46379, numindb: 30
Update: records affected: 1



GetName: 46379 STARLINK-1756

Hit Count: updated at: Sat, 05 Dec 2020 06:02:33 GMT